Weather History for KMCE - January, 2014

Change the Weather History Date:

Sunday, January 5, 2014

  Actual Average Record
Temperature  
Mean Temperature 48 °F 44 °F  
Max Temperature 63 °F 52 °F 66 °F (2006)
Min Temperature 32 °F 36 °F 27 °F (2001)
Degree Days  
Heating Degree Days 17    
Month to date heating degree days 86  
Since 1 July heating degree days 1189  
Cooling Degree Days 0    
Month to date cooling degree days 0  
Year to date cooling degree days 0  
Moisture  
Dew Point 34 °F    
Average Humidity 64    
Maximum Humidity 89    
Minimum Humidity 39    
Precipitation  
Precipitation 0.00 in 0.11 in 0.54 in (2008)
Month to date precipitation 0.00 0.55  
Year to date precipitation 0.00 0.55  
Since 1 July precipitation 1.01 4.37  
Snow  
Snow 0.00 in - - ()
Month to date snowfall 0.0  
Since 1 July snowfall 0.0  
Snow Depth 0.00 in    
Sea Level Pressure  
Sea Level Pressure 30.17 in    
Wind  
Wind Speed 1 mph (SE)    
Max Wind Speed 6 mph    
Max Gust Speed 9 mph    
Visibility 4 miles    
Events      
T = Trace of Precipitation, MM = Missing Value Source: NWS Daily Summary

Daily Weather History Graph

Daily Weather History Graph

Search for Another Location

Airport or City:

Trip Planner

Search our weather history database for the weather conditions in past years. The results will help you decide how hot, cold, wet, or windy it might be!

Date:

Astronomy

Jan. 05, 2014 Rise Set
Actual Time 7:16 AM PST 4:58 PM PST
Civil Twilight 6:47 AM PST 5:27 PM PST
Nautical Twilight 6:15 AM PST 6:00 PM PST
Astronomical Twilight 5:43 AM PST 6:31 PM PST
Moon 10:07 AM PST (1/5) 10:24 PM PST (1/5)
Length of Visible Light 10h 40m
Length of Day
9h 42m
Waxing Crescent, 25% of the Moon is Illuminated
Jan 5
Waxing Crescent
Jan 7
First Quarter
Jan 15
Full
Jan 23
Last Quarter
Jan 30
New

Hourly Weather History & Observations

Time (PST) Temp. Windchill Dew Point Humidity Pressure Visibility Wind Dir Wind Speed Gust Speed Precip Events Conditions
12:53 AM 39.0 °F - 33.1 °F 79% 30.10 in 5.0 mi Calm Calm - N/A   Haze
1:53 AM 37.0 °F 34.5 °F 33.1 °F 86% 30.11 in 4.0 mi East 3.5 mph - N/A   Clear
2:53 AM 34.0 °F 31.0 °F 28.9 °F 82% 30.12 in 5.0 mi SSW 3.5 mph - N/A   Haze
3:53 AM 36.0 °F - 30.9 °F 82% 30.12 in 5.0 mi Calm Calm - N/A   Haze
4:53 AM 36.0 °F - 30.9 °F 82% 30.12 in 5.0 mi Calm Calm - N/A   Haze
5:53 AM 33.1 °F - 30.0 °F 89% 30.14 in 5.0 mi Calm Calm - N/A   Clear
6:53 AM 34.0 °F - 30.0 °F 85% 30.16 in 5.0 mi Calm Calm - N/A   Clear
7:53 AM 36.0 °F - 30.9 °F 82% 30.18 in 4.0 mi Calm Calm - N/A   Haze
8:53 AM 37.9 °F - 32.0 °F 79% 30.22 in 4.0 mi Calm Calm - N/A   Haze
9:53 AM 46.9 °F - 37.0 °F 68% 30.23 in 4.0 mi Calm Calm - N/A   Haze
10:53 AM 51.1 °F - 37.9 °F 61% 30.22 in 4.0 mi Calm Calm - N/A   Haze
11:53 AM 55.9 °F - 39.0 °F 53% 30.20 in 4.0 mi Calm Calm - N/A   Haze
12:53 PM 60.1 °F - 39.0 °F 46% 30.17 in 4.0 mi Calm Calm - N/A   Haze
1:53 PM 62.1 °F - 39.0 °F 43% 30.16 in 4.0 mi Calm Calm - N/A   Haze
2:53 PM 63.0 °F - 37.9 °F 40% 30.15 in 4.0 mi Calm Calm - N/A   Haze
3:53 PM 63.0 °F - 37.0 °F 38% 30.16 in 4.0 mi Calm Calm - N/A   Haze
4:53 PM 57.9 °F - 37.0 °F 46% 30.16 in 4.0 mi Calm Calm - N/A   Haze
5:53 PM 53.1 °F - 35.1 °F 50% 30.17 in 6.0 mi Calm Calm - N/A   Haze
6:53 PM 48.9 °F - 34.0 °F 56% 30.18 in 5.0 mi Calm Calm - N/A   Haze
7:53 PM 44.1 °F - 32.0 °F 63% 30.19 in 5.0 mi Calm Calm - N/A   Haze
8:53 PM 42.1 °F - 33.1 °F 70% 30.20 in 4.0 mi Calm Calm - N/A   Haze
9:53 PM 41.0 °F - 30.0 °F 65% 30.22 in 4.0 mi Calm Calm - N/A   Haze
10:53 PM 39.0 °F 35.7 °F 32.0 °F 76% 30.23 in 4.0 mi SE 4.6 mph - N/A   Haze
11:53 PM 36.0 °F 32.1 °F 30.0 °F 79% 30.23 in 4.0 mi ESE 4.6 mph - N/A   Haze